Zurück zum Katalog

THORAD AGENA D DEB

AktivSSO
NORAD 42517·DEBRIS·🇺🇸 United States

Gestartet Apr 8, 1970 von Vandenberg Space Force Base

Loading…

Nächste Überflüge (nächste 24 Stunden)

TLE

AktuellSource: Space-Track

Epoche: Sep 13, 2026, 09:05 UTC

1 42517U 70025RX  26256.37848651 -.00000029  00000-0  31406-4 0  9996
2 42517 100.2241 311.5981 0091443 266.9038  92.1624 13.42552853628530

Verfolge THORAD AGENA D DEB in Echtzeit mit AllMySat

Download on the App Store